, SD

(GMT )
Rapid City

Weather History for KRAP - February, 2014

Change the Weather History Date:

Sunday, February 9, 2014

  Actual Average Record
Temperature  
Mean Temperature 2 °F 26 °F  
Max Temperature 8 °F 38 °F 70 °F (1996)
Min Temperature -5 °F 14 °F -25 °F (1994)
Degree Days  
Heating Degree Days 63 39  
Month to date heating degree days 548 352  
Since 1 July heating degree days 4893 4508  
Cooling Degree Days 0 0  
Month to date cooling degree days 0 0  
Year to date cooling degree days 0 0  
Moisture  
Dew Point -3 °F    
Average Humidity 78    
Maximum Humidity 87    
Minimum Humidity 69    
Precipitation  
Precipitation 0.02 in 0.01 in 0.87 in (1953)
Month to date precipitation 0.12 0.10  
Year to date precipitation 0.32 0.40  
Snow  
Snow 0.30 in 0.20 in 8.70 in (1953)
Month to date snowfall 2.8 1.5  
Since 1 July snowfall 39.4 19.1  
Snow Depth 2.00 in    
Sea Level Pressure  
Sea Level Pressure 30.36 in    
Wind  
Wind Speed 6 mph (NNE)    
Max Wind Speed 23 mph    
Max Gust Speed 28 mph    
Visibility 7 miles    
Events Snow    
T = Trace of Precipitation, MM = Missing Value Source: NWS Daily Summary

Daily Weather History Graph

Daily Weather History Graph

Search for Another Location

Airport or City:

Astronomy

Feb. 09, 2014 Rise Set
Actual Time 6:59 AM MST 5:13 PM MST
Civil Twilight 6:29 AM MST 5:43 PM MST
Nautical Twilight 5:55 AM MST 6:17 PM MST
Astronomical Twilight 5:22 AM MST 6:51 PM MST
Moon 12:51 PM MST (2/9) 3:10 AM MST (2/9)
Length of Visible Light 11h 14m
Length of Day
10h 13m
Waxing Gibbous, 77% of the Moon is Illuminated
Feb 9
Waxing Gibbous
Feb 14
Full
Feb 22
Last Quarter
Mar 1
New
Mar 8
First Quarter

Hourly Weather History & Observations

Time (MST) Temp. Windchill Dew Point Humidity Pressure Visibility Wind Dir Wind Speed Gust Speed Precip Events Conditions
12:52 AM 3.0 °F -17.3 °F -2.9 °F 76% 30.39 in 7.0 mi North 18.4 mph - 0.00 in   Overcast
1:52 AM 1.9 °F -18.7 °F -4.0 °F 76% 30.39 in 4.0 mi North 18.4 mph 27.6 mph 0.00 in   Overcast
2:52 AM 1.9 °F -18.7 °F -4.0 °F 76% 30.39 in 7.0 mi North 18.4 mph - 0.00 in   Mostly Cloudy
3:52 AM 1.9 °F -13.8 °F -4.0 °F 76% 30.40 in 10.0 mi NNW 10.4 mph - N/A   Overcast
4:52 AM 1.9 °F -11.8 °F -4.0 °F 76% 30.40 in 10.0 mi NNW 8.1 mph - N/A   Overcast
5:52 AM 1.9 °F -14.7 °F -4.0 °F 76% 30.42 in 6.0 mi NNW 11.5 mph - 0.00 in Snow Light Snow
6:52 AM 1.9 °F -12.9 °F -4.0 °F 76% 30.42 in 8.0 mi North 9.2 mph - 0.00 in Snow Light Snow
7:52 AM 3.0 °F -9.3 °F -2.9 °F 76% 30.42 in 3.0 mi North 6.9 mph - 0.00 in Snow Light Snow
8:30 AM 3.2 °F -9.1 °F -2.2 °F 78% 30.20 in 9.0 mi North 6.9 mph - 0.00 in Snow Light Snow
8:40 AM 3.2 °F -7.8 °F -2.2 °F 78% 30.21 in 10.0 mi North 5.8 mph - 0.00 in   Overcast
8:52 AM 3.9 °F -9.4 °F -2.9 °F 73% 30.44 in 10.0 mi North 8.1 mph - 0.00 in   Scattered Clouds
9:52 AM 3.9 °F -8.2 °F -2.9 °F 73% 30.45 in 10.0 mi North 6.9 mph - N/A   Overcast
10:30 AM 3.2 °F -7.8 °F -2.2 °F 78% 30.23 in 1.8 mi NE 5.8 mph - 0.00 in Snow Light Snow
10:43 AM 5.0 °F -2.1 °F -2.2 °F 72% 30.24 in 2.0 mi North 3.5 mph - 0.01 in Snow Light Snow
10:52 AM 5.0 °F -2.1 °F -2.0 °F 73% 30.47 in 1.8 mi North 3.5 mph - 0.01 in Snow Light Snow
11:00 AM 5.0 °F - -2.2 °F 72% 30.24 in 2.5 mi Calm Calm - 0.00 in Snow Light Snow
11:17 AM 5.0 °F -2.1 °F -2.2 °F 72% 30.22 in 3.0 mi ENE 3.5 mph - 0.00 in Snow Light Snow
11:40 AM 6.8 °F -2.0 °F -0.4 °F 72% 30.22 in 2.0 mi NE 4.6 mph - 0.00 in Snow Light Snow
11:47 AM 6.8 °F -0.1 °F -0.4 °F 72% 30.22 in 1.5 mi NNE 3.5 mph - 0.00 in Snow Light Snow
11:52 AM 6.1 °F -4.3 °F -2.0 °F 69% 30.44 in 1.5 mi ENE 5.8 mph - 0.00 in Snow Light Snow
12:11 PM 5.0 °F -6.9 °F -2.2 °F 72% 30.21 in 3.0 mi NE 6.9 mph - 0.01 in Snow Light Snow
12:28 PM 6.8 °F -3.5 °F -2.2 °F 67% 30.20 in 5.0 mi NE 5.8 mph - 0.01 in Snow Light Snow
12:52 PM 7.0 °F 0.1 °F -0.9 °F 70% 30.42 in 5.0 mi Variable 3.5 mph - 0.01 in Snow Light Snow
1:08 PM 6.8 °F - -0.4 °F 72% 30.19 in 5.0 mi Calm Calm - 0.00 in Snow Light Snow
1:52 PM 6.1 °F - -0.9 °F 73% 30.42 in 10.0 mi Calm Calm - 0.00 in   Overcast
2:47 PM 6.8 °F - -0.4 °F 72% 30.20 in 10.0 mi Calm Calm - N/A   Overcast
2:52 PM 6.1 °F - -0.9 °F 73% 30.43 in 10.0 mi Calm Calm - N/A   Overcast
3:52 PM 7.0 °F - -2.0 °F 67% 30.43 in 10.0 mi Calm Calm - 0.00 in   Overcast
4:32 PM 6.8 °F -0.1 °F -0.4 °F 72% 30.21 in 4.0 mi ENE 3.5 mph - 0.00 in Snow Light Snow
4:52 PM 6.1 °F - -0.9 °F 73% 30.45 in 9.0 mi Calm Calm - 0.00 in   Overcast
5:01 PM 6.8 °F -0.1 °F -0.4 °F 72% 30.22 in 10.0 mi ENE 3.5 mph - N/A   Overcast
5:52 PM 6.1 °F - -0.9 °F 73% 30.47 in 6.0 mi Calm Calm - 0.00 in Snow Light Snow
6:41 PM 3.2 °F -6.2 °F -0.4 °F 85% 30.23 in 7.0 mi SE 4.6 mph - 0.00 in Snow Light Snow
6:52 PM 1.9 °F - -2.9 °F 80% 30.47 in 9.0 mi Calm Calm - 0.00 in   Scattered Clouds
7:52 PM -0.0 °F -9.9 °F -4.0 °F 83% 30.47 in 10.0 mi SSE 4.6 mph - N/A   Clear
8:52 PM -2.0 °F -12.2 °F -5.1 °F 87% 30.46 in 10.0 mi SSE 4.6 mph - N/A   Clear
9:52 PM -2.9 °F -11.2 °F -7.1 °F 82% 30.45 in 10.0 mi ESE 3.5 mph - N/A   Clear
10:52 PM -4.0 °F -17.8 °F -7.1 °F 87% 30.44 in 10.0 mi SE 6.9 mph - N/A   Clear
11:52 PM -4.0 °F -14.6 °F -8.0 °F 83% 30.43 in 10.0 mi SE 4.6 mph - N/A   Scattered Clouds